Location: Asheville, NC
(35.6000°N, 82.5500°W)
Time: 07:09:36
(UTC-05:00)

Vanguard 2 Rocket - Pass Details

Date: 13 February 2018
Orbit: 555 x 3327 km, 32.9° (Epoch: 19 February)

Event Time Altitude Azimuth Distance (km) Brightness Sun altitude
Exits shadow 02:45:22 66° 106° (ESE) 3,514 9.6 -54.9°
Drops below altitude 10° 03:00:47 10° 88° (E) 5,774 11.3 -52.1°
Sets 03:04:41 0° 87° (E) 6,543 11.8 -51.4°
